Regional Weather Roundup
Issued by NWS

Home | Current Version | Previous Version | Text Only | Print | Product List | Glossary Off
Versions: 1 2 3 4 5 6 7 8 9 10 11 12 13 14 15 16 17 18 19 20 21 22 23 24 25 26 27 28 29 30 31 32 33 34 35 36 37 38 39 40 41 42 43 44 45 46 47 48 49 50

000
ASUS43 KMKX 292220
RWRWI

WISCONSIN REGIONAL WEATHER ROUNDUP
NATIONAL WEATHER SERVICE MILWAUKEE/SULLIVAN WI
500 PM CDT SUN MAR 29 2015

NOTE: "FAIR" INDICATES FEW OR NO CLOUDS BELOW 12,000 FEET WITH NO
SIGNIFICANT WEATHER AND/OR OBSTRUCTIONS TO VISIBILITY.

WIZ001-002-006>008-014>016-023>028-292300-
NORTHWEST WISCONSIN

CITY           SKY/WX    TMP DP  RH WIND       PRES   REMARKS
SUPERIOR ARPT  PTSUNNY   45  32  60 NW20G28   29.71R
ASHLAND        LGT RAIN  40  35  83 NW14G28   29.65R WCI  32
HAYWARD        CLOUDY    41  31  67 NW9G23    29.68R
SIREN          MOSUNNY   48  28  45 NW16G29   29.73R
CUMBERLAND     MOSUNNY   43  32  65 NW18      29.71R
RICE LAKE      CLOUDY    45  32  60 NW17G35   29.72R
CHETEK         CLOUDY    44  33  65 NW15G24   29.71R
LADYSMITH      CLOUDY    41  33  74 NW26G33   29.67R
EAU CLAIRE     PTSUNNY   47  33  58 NW18G31   29.71R
MENOMONIE      MOSUNNY   50  32  50 NW22G31   29.72R
NEW RICHMOND   PTSUNNY   52  30  42 NW30G39   29.74R
OSCEOLA        CLOUDY    53  28  38 W23G31    29.78R
$$

WIZ003>005-009-010-017-018-292300-
NORTH CENTRAL WISCONSIN

CITY           SKY/WX    TMP DP  RH WIND       PRES   REMARKS
MANITOWISH WTR CLOUDY    34  33  95 NW17G26   29.56R WCI  24
ARBOR VITAE    CLOUDY    37  34  90 NW15G25   29.56R WCI  27
WOODRUFF       CLOUDY    37  34  90 NW15G25   29.56R WCI  27
RHINELANDER    CLOUDY    35  31  85 NW14G30   29.55R WCI  26
EAGLE RIVER    LGT SNOW  34  31  89 NW22      29.52R WCI  22
LAND O LAKES   LGT SNOW  34  32  92 NW13G28   29.51R WCI  25
PHILLIPS       CLOUDY    36  33  89 NW12G20   29.61R WCI  28
TOMAHAWK       CLOUDY    35  32  88 NW15G25   29.58R WCI  25
MEDFORD        LGT RAIN  37  34  90 NW15      29.63R WCI  27
MERRILL        CLOUDY    37  34  88 NW18G28   29.59R WCI  27
$$

WIZ029-030-035-036-043>047-292300-
CENTRAL WISCONSIN

CITY           SKY/WX    TMP DP  RH WIND       PRES   REMARKS
WAUSAU         CLOUDY    38  33  82 NW18G31   29.59R WCI  28
MOSINEE          N/A     36  36 100 SW21G28   29.61R WCI  24
MARSHFIELD     CLOUDY    40  35  83 NW18G28   29.65R WCI  31
STEVENS POINT  CLOUDY    37  33  82 NW14G28   29.63R WCI  29
WAUPACA        CLOUDY    41  38  89 W15G22    29.59R
WAUTOMA        CLOUDY    42  40  93 NW21      29.64R
WISC RAPIDS    CLOUDY    41  34  76 NW20G28   29.67R
CAMP DOUGLAS   LGT RAIN  41  41 100 W16G29    29.71R
$$

WIZ011>013-019>022-031-037>040-048>050-292300-
NORTHEAST WISCONSIN

CITY           SKY/WX    TMP DP  RH WIND       PRES   REMARKS
ANTIGO         CLOUDY    34  32  92 NW20G30   29.54R WCI  23
SHAWANO        DRIZZLE   40  37  91 W10       29.55R WCI  33
OCONTO         CLOUDY    35  35 100 SW10      29.54R WCI  28
STURGEON BAY   CLOUDY    36  30  80 SW17G23   29.56R WCI  25
GREEN BAY      LGT RAIN  37  35  92 SW14G23   29.56S FOG     WCI  28
MANITOWOC      CLOUDY    38  35  89 MISG      29.58F FOG
APPLETON       DRIZZLE   36  36 100 SW18G25   29.58R WCI  25
CLINTONVILLE   DRIZZLE   37  36  93 W12       29.56R WCI  30
OSHKOSH        CLOUDY    37  34  89 SW13G24   29.59R FOG     WCI  29
$$

WIZ032>034-041-042-053>061-292300-
SOUTHWEST WISCONSIN

CITY           SKY/WX    TMP DP  RH WIND       PRES   REMARKS
LA CROSSE      CLOUDY    49  37  63 W12       29.74R
SPARTA         CLOUDY    44  35  71 W12G23    29.73R
VIROQUA        CLOUDY    43  37  79 NW16G25   29.75R
BOSCOBEL       CLOUDY    47  35  63 W18G26    29.77R
PRAIRIE DU CHI CLOUDY    45  33  64 W21G26    29.80R
PLATTEVILLE    CLOUDY    46  38  75 W18G28    29.78R
$$

WIZ056-057-062-063-064-067-068-292300-
SOUTH CENTRAL WISCONSIN

CITY           SKY/WX    TMP DP  RH WIND       PRES   REMARKS
REEDSBURG      CLOUDY    43  36  77 NW17G37   29.70R
BARABOO/DELLS  CLOUDY    44  35  72 NW20G29   29.69R
LONE ROCK      CLOUDY    46  35  65 NW24G36   29.74R
MINERAL POINT  CLOUDY    43  34  70 W17G23    29.75R
MADISON        CLOUDY    45  38  76 W10G23    29.68R
MIDDLETON      CLOUDY    46  36  67 W29G38    29.70R
WATERTOWN      CLOUDY    39  38  96 SW16      29.66R WCI  30
MONROE         CLOUDY    45  37  76 W33G52    29.73R
JANESVILLE     DRIZZLE   45  39  81 SW16G22   29.72R FOG
$$

WIZ051-052-058>065-066-070>072-292300-
SOUTHEAST WISCONSIN

CITY           SKY/WX    TMP DP  RH WIND       PRES   REMARKS
MILWAUKEE      PTSUNNY   41  31  67 SW24G35   29.67F
WAUKESHA       CLOUDY    37  34  87 S17G35    29.67F WCI  28
MILWAUKEE/TIMM CLOUDY    39  32  75 SW14G23   29.66F WCI  31
RACINE         CLOUDY    42  32  67 SW20G32   29.70F
BURLINGTON     CLOUDY    39  33  80 SW22G29   29.69F WCI  28
KENOSHA        CLOUDY    41  33  73 SW22G29   29.70F
FOND DU LAC    LGT RAIN  37  34  89 SW14G25   29.62R FOG     WCI  28
SHEBOYGAN      MIX PCPN  37  34  89 SW17      29.61F FOG     WCI  27
WEST BEND      DRIZZLE   36  34  93 SW15G21   29.63S WCI  26
JUNEAU         CLOUDY    36  35  94 SW17      29.66R FOG     WCI  26
$$

LSZ147-162-292300-
LAKE SUPERIOR

STATION/POSITION TIME  TEMP    WIND        PRES    WAVE
                       AIR SEA DIR/SP/G            HT/PER
                 (UTC) (F)     (DEG/KT/KT) (MB)    (FT/S)
DEVILS ISLAND    2200   38     280/ 14/ 16 1003.8R
PORT WING        2100   39     290/ 17/ 22 1004.1R
SAXON HARBOR     2100   39     280/ 10/ 19 1002.0
$$

LMZ867-665-643>646-292300-
LAKE MICHIGAN

STATION/POSITION TIME  TEMP    WIND        PRES    WAVE
                       AIR SEA DIR/SP/G            HT/PER
                 (UTC) (F)     (DEG/KT/KT) (MB)    (FT/S)
KEWAUNEE LAKESHO 2200   37     220/ 13/ 21 1000.6F
SHEBOYGAN LAKESH 2200   37     210/ 19/ 22 1003.7F
PORT WASHINGTON  2120   40     210/ 15/ 25 1004.7F
MILWAUKEE LAKESH 2100   38     220/ 22/ 27   N/A
KENOSHA   LAKESH 2200   43     220/ 21/ 29 1006.1F
$$

TC  - TEMPERATURE IN CELSIUS
VSB - VISIBILITY IN STATUTE MILES
WCI - WIND CHILL INDEX
HX  - HEAT INDEX




USA.gov is the U.S. government's official web portal to all federal, state and local government web resources and services.